| time (UTC) | temp C | wind direction | speed KPH | gust KPH | rain 1hr cm | rain 24hr cm | rain mn cm | humidity % | barometer mb |
| 20260905100031 | 10 | 225 | 0.0 | 0.0 | 0.03 | 0.13 | 0.05 | 97 | 1019.9 |
| 20260905094644 | 10 | 192 | 1.6 | 4.8 | 0.03 | 0.13 | 0.05 | 97 | 1020.0 |
| 20260905093104 | 10 | 127 | 1.6 | 4.8 | 0.03 | 0.13 | 0.05 | 97 | 1020.0 |
| 20260905084531 | 10 | 135 | 0.0 | 1.6 | 0.03 | 0.10 | 0.03 | 96 | 1019.8 |
| 20260905083035 | 10 | 140 | 0.0 | 4.8 | 0.03 | 0.10 | 0.03 | 96 | 1019.8 |
| 20260905081531 | 10 | 149 | 3.2 | 6.4 | 0.03 | 0.10 | 0.03 | 96 | 1019.7 |
| 20260905080031 | 10 | 140 | 3.2 | 6.4 | 0.03 | 0.10 | 0.00 | 96 | 1019.7 |
| 20260905074530 | 10 | 183 | 4.8 | 9.7 | 0.00 | 0.08 | 0.00 | 95 | 1019.5 |
| 20260905073031 | 10 | 157 | 3.2 | 8.0 | 0.03 | 0.08 | 0.00 | 95 | 1019.4 |
| 20260905071646 | 10 | 136 | 4.8 | 6.4 | 0.03 | 0.08 | 0.00 | 95 | 1019.3 |
| 20260905070104 | 10 | 181 | 3.2 | 6.4 | 0.03 | 0.10 | 0.00 | 94 | 1019.2 |
| 20260905064531 | 10 | 158 | 0.0 | 3.2 | 0.03 | 0.10 | 0.08 | 94 | 1019.1 |
| 20260905063030 | 10 | 217 | 0.0 | 6.4 | 0.00 | 0.08 | 0.08 | 94 | 1019.1 |
| 20260905061531 | 11 | 146 | 0.0 | 6.4 | 0.00 | 0.08 | 0.08 | 93 | 1019.0 |
| 20260905054531 | 10 | 153 | 3.2 | 6.4 | 0.00 | 0.08 | 0.08 | 92 | 1019.3 |
| 20260905053031 | 11 | 160 | 1.6 | 8.0 | 0.00 | 0.08 | 0.08 | 92 | 1019.1 |
| 20260905051527 | 11 | 157 | 0.0 | 4.8 | 0.00 | 0.08 | 0.08 | 91 | 1019.1 |
| 20260905050030 | 11 | 157 | 0.0 | 4.8 | 0.00 | 0.08 | 0.08 | 91 | 1019.1 |
| 20260905044531 | 11 | 157 | 1.6 | 4.8 | 0.00 | 0.08 | 0.08 | 91 | 1019.0 |
| 20260905043102 | 11 | 157 | 1.6 | 4.8 | 0.00 | 0.08 | 0.08 | 91 | 1018.9 |
| 20260905041530 | 11 | 157 | 0.0 | 3.2 | 0.00 | 0.08 | 0.08 | 91 | 1018.9 |
| 20260905040030 | 11 | 173 | 0.0 | 3.2 | 0.00 | 0.08 | 0.08 | 91 | 1018.8 |
| 20260905034606 | 11 | 157 | 3.2 | 4.8 | 0.00 | 0.08 | 0.08 | 90 | 1018.6 |
| 20260905033030 | 11 | 153 | 3.2 | 8.0 | 0.00 | 0.08 | 0.08 | 88 | 1018.4 |
| 20260905031530 | 11 | 331 | 0.0 | 4.8 | 0.00 | 0.08 | 0.08 | 86 | 1018.4 |
| 20260905030030 | 12 | 337 | 0.0 | 1.6 | 0.00 | 0.08 | 0.08 | 84 | 1018.3 |
| 20260905024530 | 13 | 336 | 0.0 | 4.8 | 0.00 | 0.08 | 0.08 | 81 | 1018.3 |
| 20260905023107 | 13 | 318 | 3.2 | 8.0 | 0.00 | 0.08 | 0.08 | 79 | 1018.5 |
| 20260905021531 | 14 | 339 | 4.8 | 9.7 | 0.00 | 0.08 | 0.08 | 77 | 1018.3 |
| 20260905020032 | 15 | 326 | 4.8 | 11.3 | 0.00 | 0.08 | 0.08 | 74 | 1018.0 |
| 20260905014532 | 15 | 292 | 1.6 | 6.4 | 0.00 | 0.08 | 0.08 | 72 | 1017.8 |
| 20260905013109 | 15 | 270 | 0.0 | 0.0 | 0.00 | 0.08 | 0.08 | 73 | 1017.8 |
| 20260905011605 | 16 | 270 | 0.0 | 1.6 | 0.00 | 0.08 | 0.08 | 73 | 1017.8 |
| 20260905010030 | 16 | 289 | 0.0 | 0.0 | 0.00 | 0.08 | 0.08 | 72 | 1017.8 |
| 20260905003103 | 16 | 247 | 0.0 | 4.8 | 0.00 | 0.08 | 0.08 | 73 | 1017.5 |
| 20260905001605 | 15 | 278 | 1.6 | 6.4 | 0.00 | 0.08 | 0.08 | 73 | 1017.5 |
| 20260905000029 | 15 | 303 | 3.2 | 8.0 | 0.00 | 0.08 | 0.08 | 72 | 1017.5 |
| 20260904234527 | 15 | 316 | 3.2 | 6.4 | 0.00 | 0.08 | 0.08 | 73 | 1017.4 |
| 20260904233029 | 15 | 322 | 4.8 | 9.7 | 0.00 | 0.08 | 0.08 | 73 | 1017.3 |
| 20260904231528 | 16 | 14 | 3.2 | 8.0 | 0.00 | 0.08 | 0.08 | 71 | 1017.3 |
| 20260904230030 | 16 | 21 | 4.8 | 9.7 | 0.00 | 0.08 | 0.08 | 70 | 1017.3 |
| 20260904224541 | 16 | 50 | 1.6 | 6.4 | 0.00 | 0.08 | 0.08 | 72 | 1017.3 |
| 20260904221534 | 15 | 143 | 0.0 | 6.4 | 0.00 | 0.08 | 0.08 | 77 | 1017.3 |
| 20260904220031 | 15 | 181 | 3.2 | 8.0 | 0.00 | 0.08 | 0.08 | 75 | 1017.3 |
| 20260904214529 | 16 | 180 | 1.6 | 8.0 | 0.00 | 0.08 | 0.08 | 74 | 1017.2 |
| 20260904210028 | 16 | 148 | 1.6 | 4.8 | 0.00 | 0.08 | 0.08 | 76 | 1016.8 |
| 20260904204531 | 15 | 120 | 0.0 | 4.8 | 0.00 | 0.08 | 0.08 | 77 | 1016.8 |
| 20260904203029 | 15 | 161 | 3.2 | 6.4 | 0.00 | 0.08 | 0.08 | 77 | 1016.9 |
| 20260904201533 | 15 | 116 | 0.0 | 3.2 | 0.00 | 0.08 | 0.08 | 75 | 1017.0 |
| 20260904200031 | 15 | 91 | 1.6 | 4.8 | 0.00 | 0.08 | 0.08 | 74 | 1017.0 |
| 20260904194541 | 14 | 90 | 0.0 | 4.8 | 0.00 | 0.08 | 0.08 | 75 | 1017.1 |
| 20260904193033 | 13 | 17 | 0.0 | 3.2 | 0.00 | 0.08 | 0.08 | 75 | 1017.2 |
| 20260904191531 | 13 | 328 | 0.0 | 4.8 | 0.00 | 0.08 | 0.08 | 76 | 1017.2 |
| 20260904190031 | 14 | 5 | 0.0 | 4.8 | 0.00 | 0.08 | 0.08 | 77 | 1017.3 |
| 20260904184529 | 13 | 187 | 0.0 | 6.4 | 0.00 | 0.08 | 0.08 | 80 | 1017.3 |
| 20260904183034 | 13 | 212 | 0.0 | 4.8 | 0.00 | 0.08 | 0.08 | 81 | 1017.3 |
| 20260904181532 | 13 | 229 | 1.6 | 4.8 | 0.00 | 0.08 | 0.08 | 82 | 1017.2 |
| 20260904180029 | 13 | 311 | 0.0 | 4.8 | 0.00 | 0.08 | 0.08 | 87 | 1017.1 |
| 20260904174530 | 11 | 336 | 1.6 | 6.4 | 0.00 | 0.08 | 0.08 | 91 | 1017.0 |
| 20260904173031 | 11 | 67 | 0.0 | 1.6 | 0.00 | 0.08 | 0.08 | 92 | 1016.9 |
| 20260904171530 | 11 | 67 | 0.0 | 3.2 | 0.00 | 0.08 | 0.08 | 93 | 1017.0 |
| 20260904170034 | 11 | 53 | 1.6 | 4.8 | 0.00 | 0.08 | 0.08 | 94 | 1016.9 |
| 20260904164646 | 11 | 19 | 1.6 | 6.4 | 0.00 | 0.08 | 0.08 | 95 | 1016.9 |
| 20260904163032 | 11 | 18 | 3.2 | 8.0 | 0.00 | 0.08 | 0.08 | 96 | 1016.9 |
| 20260904160032 | 10 | 337 | 1.6 | 4.8 | 0.00 | 0.08 | 0.08 | 98 | 1016.7 |
| 20260904154609 | 10 | 337 | 0.0 | 1.6 | 0.00 | 0.08 | 0.08 | 98 | 1016.6 |
| 20260904153030 | 10 | 7 | 0.0 | 3.2 | 0.00 | 0.08 | 0.08 | 98 | 1016.5 |
| 20260904151532 | 9 | 180 | 0.0 | 0.0 | 0.00 | 0.08 | 0.08 | 98 | 1016.2 |
| 20260904150030 | 9 | 180 | 0.0 | 0.0 | 0.00 | 0.08 | 0.08 | 98 | 1016.1 |
| 20260904144530 | 9 | 180 | 0.0 | 0.0 | 0.00 | 0.08 | 0.08 | 98 | 1016.0 |
| 20260904140104 | 8 | 180 | 0.0 | 1.6 | 0.00 | 0.08 | 0.08 | 98 | 1015.5 |
| 20260904134530 | 8 | 163 | 0.0 | 1.6 | 0.03 | 0.08 | 0.08 | 98 | 1015.4 |
| 20260904133031 | 8 | 157 | 0.0 | 1.6 | 0.03 | 0.08 | 0.08 | 98 | 1015.3 |
| 20260904131606 | 8 | 157 | 0.0 | 0.0 | 0.05 | 0.08 | 0.08 | 98 | 1015.2 |
| 20260904124530 | 8 | 157 | 0.0 | 1.6 | 0.03 | 0.05 | 0.05 | 98 | 1015.1 |
| 20260904123029 | 8 | 157 | 0.0 | 0.0 | 0.03 | 0.05 | 0.03 | 98 | 1015.0 |
| 20260904121531 | 8 | 157 | 0.0 | 1.6 | 0.00 | 0.03 | 0.03 | 97 | 1015.0 |
| 20260904120108 | 8 | 157 | 0.0 | 3.2 | 0.00 | 0.03 | 0.03 | 97 | 1014.9 |
| 20260904114606 | 8 | 159 | 1.6 | 4.8 | 0.00 | 0.03 | 0.03 | 97 | 1014.8 |
| 20260904111528 | 8 | 178 | 0.0 | 0.0 | 0.00 | 0.03 | 0.03 | 97 | 1014.5 |
| 20260904110029 | 8 | 163 | 0.0 | 3.2 | 0.00 | 0.05 | 0.03 | 97 | 1014.4 |
| 20260904104606 | 8 | 156 | 0.0 | 4.8 | 0.00 | 0.05 | 0.03 | 97 | 1014.2 |
| 20260904103031 | 8 | 149 | 0.0 | 6.4 | 0.00 | 0.05 | 0.03 | 97 | 1014.1 |
| 20260904101530 | 8 | 180 | 0.0 | 0.0 | 0.00 | 0.05 | 0.03 | 97 | 1014.1 |